Location: Olsztyn
(53.7711°N, 20.4783°E)
Time: 23:33:00
(UTC+01:00)

ISS - Visible Passes

Search period start: 23 January 2019 00:00
Search period end: 02 February 2019 00:00
Orbit: 404 x 410 km, 51.6° (Epoch: 24 January)

Date Brightness Start Highest point End Pass type
(mag) Time Alt. Az. Time Alt. Az. Time Alt. Az.
23 Jan -1.0 18:40:50 10° SSW 18:41:05 11° SSW 18:41:05 11° SSW visible
24 Jan -1.5 17:50:30 10° S 17:52:03 13° SE 17:52:03 13° SE visible
25 Jan -2.0 18:33:51 10° SW 18:35:41 24° SSW 18:35:41 24° SSW visible
26 Jan -2.2 17:42:57 10° SSW 17:45:34 22° SSE 17:46:30 19° SE visible
26 Jan -0.9 19:18:28 10° WSW 19:19:14 16° WSW 19:19:14 16° WSW visible
27 Jan -1.6 16:52:20 10° S 16:54:24 16° SE 16:56:28 10° ESE visible
27 Jan -3.0 18:27:13 10° WSW 18:30:00 41° S 18:30:00 41° S visible
28 Jan -2.7 17:36:02 10° SW 17:39:04 34° SSE 17:40:43 21° ESE visible
28 Jan -1.4 19:12:04 10° WSW 19:13:26 22° WSW 19:13:26 22° WSW visible
29 Jan -3.6 18:20:43 10° WSW 18:23:58 56° S 18:24:07 55° SSE visible
30 Jan -3.2 17:29:24 10° WSW 17:32:36 48° SSE 17:34:47 18° E visible
30 Jan -1.8 19:05:41 10° W 19:07:30 29° WSW 19:07:30 29° WSW visible
31 Jan -3.6 18:14:17 10° W 18:17:33 60° S 18:18:09 49° SE visible
31 Jan -0.3 19:50:45 10° W 19:50:52 11° W 19:50:52 11° W visible
01 Feb -3.4 17:22:53 10° WSW 17:26:08 58° S 17:28:49 14° E visible
01 Feb -2.3 18:59:17 10° W 19:01:32 34° WSW 19:01:32 34° WSW visible
